Year,Month,Day,Hour,Minute,Value (Times are PST for temperature in C)
2009,07,04,00,00,15.50
2009,07,04,00,01,15.50
2009,07,04,00,02,15.40
2009,07,04,00,03,15.40
2009,07,04,00,04,15.30
2009,07,04,00,05,15.30
2009,07,04,00,06,15.30
2009,07,04,00,07,15.30
2009,07,04,00,08,15.30
2009,07,04,00,09,15.30
2009,07,04,00,10,15.30
2009,07,04,00,11,15.30
2009,07,04,00,12,15.30
2009,07,04,00,13,15.30
2009,07,04,00,14,15.30
2009,07,04,00,15,15.30
2009,07,04,00,16,15.30
2009,07,04,00,17,15.30
2009,07,04,00,18,15.30
2009,07,04,00,19,15.20
2009,07,04,00,20,15.20
2009,07,04,00,21,15.20
2009,07,04,00,22,15.10
2009,07,04,00,23,15.10
2009,07,04,00,24,15.00
2009,07,04,00,25,15.00
2009,07,04,00,26,15.00
2009,07,04,00,27,14.90
2009,07,04,00,28,14.90
2009,07,04,00,29,14.90
2009,07,04,00,30,14.90
2009,07,04,00,31,14.90
2009,07,04,00,32,14.90
2009,07,04,00,33,14.90
2009,07,04,00,34,14.90
2009,07,04,00,35,14.90
2009,07,04,00,36,14.90
2009,07,04,00,37,14.90
2009,07,04,00,38,14.90
2009,07,04,00,39,14.90
2009,07,04,00,40,14.90
2009,07,04,00,41,14.90
2009,07,04,00,42,14.90
2009,07,04,00,43,14.90
2009,07,04,00,44,14.90
2009,07,04,00,45,14.90
2009,07,04,00,46,14.90
2009,07,04,00,47,14.90
2009,07,04,00,48,14.90
2009,07,04,00,49,14.90
2009,07,04,00,50,14.90
2009,07,04,00,51,14.90
2009,07,04,00,52,14.90
2009,07,04,00,53,14.90
2009,07,04,00,54,14.80
2009,07,04,00,55,14.80
2009,07,04,00,56,14.80
2009,07,04,00,57,14.80
2009,07,04,00,58,14.80
2009,07,04,00,59,14.80
2009,07,04,01,00,14.80
2009,07,04,01,01,14.80
2009,07,04,01,02,14.80
2009,07,04,01,03,14.80
2009,07,04,01,04,14.80
2009,07,04,01,05,14.70
2009,07,04,01,06,14.70
2009,07,04,01,07,14.70
2009,07,04,01,08,14.70
2009,07,04,01,09,14.70
2009,07,04,01,10,14.60
2009,07,04,01,11,14.60
2009,07,04,01,12,14.60
2009,07,04,01,13,14.60
2009,07,04,01,14,14.60
2009,07,04,01,15,14.60
2009,07,04,01,16,14.50
2009,07,04,01,17,14.50
2009,07,04,01,18,14.50
2009,07,04,01,19,14.50
2009,07,04,01,20,14.50
2009,07,04,01,21,14.40
2009,07,04,01,22,14.40
2009,07,04,01,23,14.40
2009,07,04,01,24,14.40
2009,07,04,01,25,14.40
2009,07,04,01,26,14.40
2009,07,04,01,27,14.40
2009,07,04,01,28,14.40
2009,07,04,01,29,14.40
2009,07,04,01,30,14.40
2009,07,04,01,31,14.40
2009,07,04,01,32,14.40
2009,07,04,01,33,14.40
2009,07,04,01,34,14.30
2009,07,04,01,35,14.30
2009,07,04,01,36,14.30
2009,07,04,01,37,14.30
2009,07,04,01,38,14.30
2009,07,04,01,39,14.30
2009,07,04,01,40,14.30
2009,07,04,01,41,14.20
2009,07,04,01,42,14.20
2009,07,04,01,43,14.20
2009,07,04,01,44,14.20
2009,07,04,01,45,14.20
2009,07,04,01,46,14.20
2009,07,04,01,47,14.20
2009,07,04,01,48,14.20
2009,07,04,01,49,14.20
2009,07,04,01,50,14.20
2009,07,04,01,51,14.20
2009,07,04,01,52,14.10
2009,07,04,01,53,14.10
2009,07,04,01,54,14.10
2009,07,04,01,55,14.10
2009,07,04,01,56,14.10
2009,07,04,01,57,14.20
2009,07,04,01,58,14.20
2009,07,04,01,59,14.20
2009,07,04,02,00,14.20
2009,07,04,02,01,14.20
2009,07,04,02,02,14.20
2009,07,04,02,03,14.20
2009,07,04,02,04,14.20
2009,07,04,02,05,14.20
2009,07,04,02,06,14.20
2009,07,04,02,07,14.20
2009,07,04,02,08,14.10
2009,07,04,02,09,14.10
2009,07,04,02,10,14.10
2009,07,04,02,11,14.10
2009,07,04,02,12,14.00
2009,07,04,02,13,14.00
2009,07,04,02,14,14.00
2009,07,04,02,15,14.00
2009,07,04,02,16,14.00
2009,07,04,02,17,13.90
2009,07,04,02,18,13.90
2009,07,04,02,19,13.90
2009,07,04,02,20,13.90
2009,07,04,02,21,13.90
2009,07,04,02,22,13.90
2009,07,04,02,23,13.90
2009,07,04,02,24,13.80
2009,07,04,02,25,13.80
2009,07,04,02,26,13.80
2009,07,04,02,27,13.70
2009,07,04,02,28,13.70
2009,07,04,02,29,13.70
2009,07,04,02,30,13.70
2009,07,04,02,31,13.70
2009,07,04,02,32,13.70
2009,07,04,02,33,13.70
2009,07,04,02,34,13.70
2009,07,04,02,35,13.60
2009,07,04,02,36,13.60
2009,07,04,02,37,13.60
2009,07,04,02,38,13.60
2009,07,04,02,39,13.60
2009,07,04,02,40,13.60
2009,07,04,02,41,13.60
2009,07,04,02,42,13.60
2009,07,04,02,43,13.50
2009,07,04,02,44,13.50
2009,07,04,02,45,13.50
2009,07,04,02,46,13.50
2009,07,04,02,47,13.50
2009,07,04,02,48,13.50
2009,07,04,02,49,13.50
2009,07,04,02,50,13.50
2009,07,04,02,51,13.40
2009,07,04,02,52,13.40
2009,07,04,02,53,13.40
2009,07,04,02,54,13.40
2009,07,04,02,55,13.40
2009,07,04,02,56,13.40
2009,07,04,02,57,13.40
2009,07,04,02,58,13.40
2009,07,04,02,59,13.40
2009,07,04,03,00,13.30
2009,07,04,03,01,13.30
2009,07,04,03,02,13.30
2009,07,04,03,03,13.30
2009,07,04,03,04,13.30
2009,07,04,03,05,13.30
2009,07,04,03,06,13.30
2009,07,04,03,07,13.20
2009,07,04,03,08,13.20
2009,07,04,03,09,13.20
2009,07,04,03,10,13.20
2009,07,04,03,11,13.20
2009,07,04,03,12,13.20
2009,07,04,03,13,13.20
2009,07,04,03,14,13.20
2009,07,04,03,15,13.20
2009,07,04,03,16,13.20
2009,07,04,03,17,13.20
2009,07,04,03,18,13.20
2009,07,04,03,19,13.20
2009,07,04,03,20,13.20
2009,07,04,03,21,13.10
2009,07,04,03,22,13.10
2009,07,04,03,23,13.10
2009,07,04,03,24,13.10
2009,07,04,03,25,13.10
2009,07,04,03,26,13.10
2009,07,04,03,27,13.10
2009,07,04,03,28,13.10
2009,07,04,03,29,13.10
2009,07,04,03,30,13.10
2009,07,04,03,31,13.10
2009,07,04,03,32,13.10
2009,07,04,03,33,13.10
2009,07,04,03,34,13.10
2009,07,04,03,35,13.10
2009,07,04,03,36,13.10
2009,07,04,03,37,13.00
2009,07,04,03,38,13.00
2009,07,04,03,39,13.00
2009,07,04,03,40,13.00
2009,07,04,03,41,13.00
2009,07,04,03,42,13.00
2009,07,04,03,43,12.90
2009,07,04,03,44,12.90
2009,07,04,03,45,12.90
2009,07,04,03,46,12.80
2009,07,04,03,47,12.80
2009,07,04,03,48,12.80
2009,07,04,03,49,12.80
2009,07,04,03,50,12.80
2009,07,04,03,51,12.80
2009,07,04,03,52,12.80
2009,07,04,03,53,12.80
2009,07,04,03,54,12.80
2009,07,04,03,55,12.70
2009,07,04,03,56,12.70
2009,07,04,03,57,12.70
2009,07,04,03,58,12.70
2009,07,04,03,59,12.70
2009,07,04,04,00,12.60
2009,07,04,04,01,12.60
2009,07,04,04,02,12.60
2009,07,04,04,03,12.60
2009,07,04,04,04,12.60
2009,07,04,04,05,12.60
2009,07,04,04,06,12.60
2009,07,04,04,07,12.60
2009,07,04,04,08,12.60
2009,07,04,04,09,12.60
2009,07,04,04,10,12.60
2009,07,04,04,11,12.60
2009,07,04,04,12,12.50
2009,07,04,04,13,12.50
2009,07,04,04,14,12.50
2009,07,04,04,15,12.40
2009,07,04,04,16,12.40
2009,07,04,04,17,12.40
2009,07,04,04,18,12.40
2009,07,04,04,19,12.40
2009,07,04,04,20,12.40
2009,07,04,04,21,12.40
2009,07,04,04,22,12.40
2009,07,04,04,23,12.40
2009,07,04,04,24,12.40
2009,07,04,04,25,12.30
2009,07,04,04,26,12.30
2009,07,04,04,27,12.30
2009,07,04,04,28,12.30
2009,07,04,04,29,12.30
2009,07,04,04,30,12.30
2009,07,04,04,31,12.30
2009,07,04,04,32,12.30
2009,07,04,04,33,12.30
2009,07,04,04,34,12.30
2009,07,04,04,35,12.30
2009,07,04,04,36,12.30
2009,07,04,04,37,12.30
2009,07,04,04,38,12.30
2009,07,04,04,39,12.30
2009,07,04,04,40,12.30
2009,07,04,04,41,12.30
2009,07,04,04,42,12.30
2009,07,04,04,43,12.30
2009,07,04,04,44,12.30
2009,07,04,04,45,12.30
2009,07,04,04,46,12.30
2009,07,04,04,47,12.30
2009,07,04,04,48,12.30
2009,07,04,04,49,12.30
2009,07,04,04,50,12.30
2009,07,04,04,51,12.30
2009,07,04,04,52,12.30
2009,07,04,04,53,12.30
2009,07,04,04,54,12.30
2009,07,04,04,55,12.30
2009,07,04,04,56,12.30
2009,07,04,04,57,12.30
2009,07,04,04,58,12.30
2009,07,04,04,59,12.20
2009,07,04,05,00,12.20
2009,07,04,05,01,12.20
2009,07,04,05,02,12.20
2009,07,04,05,03,12.10
2009,07,04,05,04,12.10
2009,07,04,05,05,12.10
2009,07,04,05,06,12.00
2009,07,04,05,07,12.00
2009,07,04,05,08,12.00
2009,07,04,05,09,12.00
2009,07,04,05,10,11.90
2009,07,04,05,11,11.90
2009,07,04,05,12,11.90
2009,07,04,05,13,11.90
2009,07,04,05,14,11.90
2009,07,04,05,15,11.90
2009,07,04,05,16,11.90
2009,07,04,05,17,11.80
2009,07,04,05,18,11.80
2009,07,04,05,19,11.80
2009,07,04,05,20,11.80
2009,07,04,05,21,11.80
2009,07,04,05,22,11.80
2009,07,04,05,23,11.80
2009,07,04,05,24,11.80
2009,07,04,05,25,11.80
2009,07,04,05,26,11.80
2009,07,04,05,27,11.80
2009,07,04,05,28,11.80
2009,07,04,05,29,11.80
2009,07,04,05,30,11.80
2009,07,04,05,31,11.80
2009,07,04,05,32,11.80
2009,07,04,05,33,11.80
2009,07,04,05,34,11.80
2009,07,04,05,35,11.80
2009,07,04,05,36,11.80
2009,07,04,05,37,11.80
2009,07,04,05,38,11.80
2009,07,04,05,39,11.80
2009,07,04,05,40,11.80
2009,07,04,05,41,11.80
2009,07,04,05,42,11.90
2009,07,04,05,43,11.90
2009,07,04,05,44,11.90
2009,07,04,05,45,11.90
2009,07,04,05,46,12.00
2009,07,04,05,47,12.00
2009,07,04,05,48,12.00
2009,07,04,05,49,12.00
2009,07,04,05,50,12.00
2009,07,04,05,51,12.00
2009,07,04,05,52,12.00
2009,07,04,05,53,12.00
2009,07,04,05,54,12.00
2009,07,04,05,55,12.00
2009,07,04,05,56,12.00
2009,07,04,05,57,12.00
2009,07,04,05,58,12.00
2009,07,04,05,59,11.90
2009,07,04,06,00,12.00
2009,07,04,06,01,12.00
2009,07,04,06,02,12.00
2009,07,04,06,03,12.00
2009,07,04,06,04,12.00
2009,07,04,06,05,12.00
2009,07,04,06,06,12.00
2009,07,04,06,07,12.00
2009,07,04,06,08,12.00
2009,07,04,06,09,12.00
2009,07,04,06,10,12.00
2009,07,04,06,11,12.00
2009,07,04,06,12,12.10
2009,07,04,06,13,12.10
2009,07,04,06,14,12.10
2009,07,04,06,15,12.10
2009,07,04,06,16,12.10
2009,07,04,06,17,12.10
2009,07,04,06,18,12.10
2009,07,04,06,19,12.20
2009,07,04,06,20,12.20
2009,07,04,06,21,12.20
2009,07,04,06,22,12.20
2009,07,04,06,23,12.20
2009,07,04,06,24,12.20
2009,07,04,06,25,12.20
2009,07,04,06,26,12.20
2009,07,04,06,27,12.20
2009,07,04,06,28,12.20
2009,07,04,06,29,12.30
2009,07,04,06,30,12.30
2009,07,04,06,31,12.30
2009,07,04,06,32,12.30
2009,07,04,06,33,12.30
2009,07,04,06,34,12.30
2009,07,04,06,35,12.30
2009,07,04,06,36,12.30
2009,07,04,06,37,12.30
2009,07,04,06,38,12.40
2009,07,04,06,39,12.40
2009,07,04,06,40,12.50
2009,07,04,06,41,12.50
2009,07,04,06,42,12.60
2009,07,04,06,43,12.60
2009,07,04,06,44,12.70
2009,07,04,06,45,12.70
2009,07,04,06,46,12.80
2009,07,04,06,47,12.80
2009,07,04,06,48,12.80
2009,07,04,06,49,12.80
2009,07,04,06,50,12.80
2009,07,04,06,51,12.80
2009,07,04,06,52,12.90
2009,07,04,06,53,12.90
2009,07,04,06,54,12.90
2009,07,04,06,55,13.00
2009,07,04,06,56,13.00
2009,07,04,06,57,13.00
2009,07,04,06,58,13.10
2009,07,04,06,59,13.10
2009,07,04,07,00,13.20
2009,07,04,07,01,13.20
2009,07,04,07,02,13.30
2009,07,04,07,03,13.30
2009,07,04,07,04,13.30
2009,07,04,07,05,13.30
2009,07,04,07,06,13.40
2009,07,04,07,07,13.50
2009,07,04,07,08,13.50
2009,07,04,07,09,13.50
2009,07,04,07,10,13.60
2009,07,04,07,11,13.60
2009,07,04,07,12,13.70
2009,07,04,07,13,13.70
2009,07,04,07,14,13.70
2009,07,04,07,15,13.70
2009,07,04,07,16,13.80
2009,07,04,07,17,13.80
2009,07,04,07,18,13.90
2009,07,04,07,19,13.90
2009,07,04,07,20,14.00
2009,07,04,07,21,14.00
2009,07,04,07,22,14.00
2009,07,04,07,23,14.10
2009,07,04,07,24,14.20
2009,07,04,07,25,14.30
2009,07,04,07,26,14.50
2009,07,04,07,27,14.60
2009,07,04,07,28,14.70
2009,07,04,07,29,14.80
2009,07,04,07,30,14.90
2009,07,04,07,31,15.10
2009,07,04,07,32,15.20
2009,07,04,07,33,15.30
2009,07,04,07,34,15.50
2009,07,04,07,35,15.60
2009,07,04,07,36,15.70
2009,07,04,07,37,15.80
2009,07,04,07,38,15.80
2009,07,04,07,39,15.90
2009,07,04,07,40,16.00
2009,07,04,07,41,16.10
2009,07,04,07,42,16.10
2009,07,04,07,43,16.10
2009,07,04,07,44,16.20
2009,07,04,07,45,16.30
2009,07,04,07,46,16.30
2009,07,04,07,47,16.40
2009,07,04,07,48,16.50
2009,07,04,07,49,16.70
2009,07,04,07,50,16.80
2009,07,04,07,51,16.90
2009,07,04,07,52,17.10
2009,07,04,07,53,17.20
2009,07,04,07,54,17.30
2009,07,04,07,55,17.40
2009,07,04,07,56,17.40
2009,07,04,07,57,17.50
2009,07,04,07,58,17.60
2009,07,04,07,59,17.70
2009,07,04,08,00,17.80
2009,07,04,08,01,17.90
2009,07,04,08,02,17.90
2009,07,04,08,03,18.10
2009,07,04,08,04,18.10
2009,07,04,08,05,18.20
2009,07,04,08,06,18.20
2009,07,04,08,07,18.30
2009,07,04,08,08,18.40
2009,07,04,08,09,18.40
2009,07,04,08,10,18.50
2009,07,04,08,11,18.60
2009,07,04,08,12,18.70
2009,07,04,08,13,18.80
2009,07,04,08,14,18.90
2009,07,04,08,15,18.90
2009,07,04,08,16,18.90
2009,07,04,08,17,19.10
2009,07,04,08,18,19.10
2009,07,04,08,19,19.20
2009,07,04,08,20,19.30
2009,07,04,08,21,19.40
2009,07,04,08,22,19.50
2009,07,04,08,23,19.60
2009,07,04,08,24,19.60
2009,07,04,08,25,19.60
2009,07,04,08,26,19.70
2009,07,04,08,27,19.70
2009,07,04,08,28,19.70
2009,07,04,08,29,19.80
2009,07,04,08,30,19.80
2009,07,04,08,31,19.80
2009,07,04,08,32,19.90
2009,07,04,08,33,19.90
2009,07,04,08,34,19.90
2009,07,04,08,35,19.90
2009,07,04,08,36,19.90
2009,07,04,08,37,20.10
2009,07,04,08,38,20.10
2009,07,04,08,39,20.10
2009,07,04,08,40,20.20
2009,07,04,08,41,20.20
2009,07,04,08,42,20.20
2009,07,04,08,43,20.20
2009,07,04,08,44,20.20
2009,07,04,08,45,20.30
2009,07,04,08,46,20.30
2009,07,04,08,47,20.30
2009,07,04,08,48,20.30
2009,07,04,08,49,20.20
2009,07,04,08,50,20.20
2009,07,04,08,51,20.20
2009,07,04,08,52,20.20
2009,07,04,08,53,20.20
2009,07,04,08,54,20.20
2009,07,04,08,55,20.20
2009,07,04,08,56,20.20
2009,07,04,08,57,20.20
2009,07,04,08,58,20.30
2009,07,04,08,59,20.40
2009,07,04,09,00,20.40
2009,07,04,09,01,20.50
2009,07,04,09,02,20.50
2009,07,04,09,03,20.50
2009,07,04,09,04,20.40
2009,07,04,09,05,20.40
2009,07,04,09,06,20.40
2009,07,04,09,07,20.40
2009,07,04,09,08,20.50
2009,07,04,09,09,20.50
2009,07,04,09,10,20.50
2009,07,04,09,11,20.50
2009,07,04,09,12,20.50
2009,07,04,09,13,20.50
2009,07,04,09,14,20.40
2009,07,04,09,15,20.30
2009,07,04,09,16,20.20
2009,07,04,09,17,20.30
2009,07,04,09,18,20.30
2009,07,04,09,19,20.30
2009,07,04,09,20,20.40
2009,07,04,09,21,20.40
2009,07,04,09,22,20.40
2009,07,04,09,23,20.50
2009,07,04,09,24,20.70
2009,07,04,09,25,20.80
2009,07,04,09,26,20.80
2009,07,04,09,27,20.90
2009,07,04,09,28,20.90
2009,07,04,09,29,21.00
2009,07,04,09,30,21.10
2009,07,04,09,31,21.20
2009,07,04,09,32,21.30
2009,07,04,09,33,21.40
2009,07,04,09,34,21.50
2009,07,04,09,35,21.60
2009,07,04,09,36,21.60
2009,07,04,09,37,21.50
2009,07,04,09,38,21.40
2009,07,04,09,39,21.30
2009,07,04,09,40,21.30
2009,07,04,09,41,21.30
2009,07,04,09,42,21.30
2009,07,04,09,43,21.40
2009,07,04,09,44,21.40
2009,07,04,09,45,21.40
2009,07,04,09,46,21.40
2009,07,04,09,47,21.40
2009,07,04,09,48,21.40
2009,07,04,09,49,21.40
2009,07,04,09,50,21.40
2009,07,04,09,51,21.60
2009,07,04,09,52,21.60
2009,07,04,09,53,21.60
2009,07,04,09,54,21.50
2009,07,04,09,55,21.40
2009,07,04,09,56,21.40
2009,07,04,09,57,21.40
2009,07,04,09,58,21.40
2009,07,04,09,59,21.40
2009,07,04,10,00,21.40
2009,07,04,10,01,21.50
2009,07,04,10,02,21.60
2009,07,04,10,03,21.60
2009,07,04,10,04,21.40
2009,07,04,10,05,21.40
2009,07,04,10,06,21.30
2009,07,04,10,07,21.30
2009,07,04,10,08,21.40
2009,07,04,10,09,21.50
2009,07,04,10,10,21.60
2009,07,04,10,11,21.80
2009,07,04,10,12,21.90
2009,07,04,10,13,22.00
2009,07,04,10,14,22.20
2009,07,04,10,15,22.30
2009,07,04,10,16,22.30
2009,07,04,10,17,22.40
2009,07,04,10,18,22.40
2009,07,04,10,19,22.30
2009,07,04,10,20,22.20
2009,07,04,10,21,22.20
2009,07,04,10,22,22.10
2009,07,04,10,23,22.20
2009,07,04,10,24,22.30
2009,07,04,10,25,22.30
2009,07,04,10,26,22.20
2009,07,04,10,27,22.10
2009,07,04,10,28,22.00
2009,07,04,10,29,21.90
2009,07,04,10,30,21.80
2009,07,04,10,31,21.80
2009,07,04,10,32,21.90
2009,07,04,10,33,22.00
2009,07,04,10,34,22.10
2009,07,04,10,35,22.20
2009,07,04,10,36,22.20
2009,07,04,10,37,22.30
2009,07,04,10,38,22.40
2009,07,04,10,39,22.40
2009,07,04,10,40,22.40
2009,07,04,10,41,22.40
2009,07,04,10,42,22.40
2009,07,04,10,43,22.50
2009,07,04,10,44,22.60
2009,07,04,10,45,22.60
2009,07,04,10,46,22.70
2009,07,04,10,47,22.70
2009,07,04,10,48,22.70
2009,07,04,10,49,22.70
2009,07,04,10,50,22.70
2009,07,04,10,51,22.80
2009,07,04,10,52,22.80
2009,07,04,10,53,22.70
2009,07,04,10,54,22.60
2009,07,04,10,55,22.60
2009,07,04,10,56,22.60
2009,07,04,10,57,22.60
2009,07,04,10,58,22.60
2009,07,04,10,59,22.60
2009,07,04,11,00,22.60
2009,07,04,11,01,22.60
2009,07,04,11,02,22.60
2009,07,04,11,03,22.60
2009,07,04,11,04,22.50
2009,07,04,11,05,22.50
2009,07,04,11,06,22.50
2009,07,04,11,07,22.60
2009,07,04,11,08,22.70
2009,07,04,11,09,22.80
2009,07,04,11,10,22.90
2009,07,04,11,11,22.90
2009,07,04,11,12,22.90
2009,07,04,11,13,23.00
2009,07,04,11,14,23.10
2009,07,04,11,15,23.20
2009,07,04,11,16,23.20
2009,07,04,11,17,23.20
2009,07,04,11,18,23.20
2009,07,04,11,19,23.30
2009,07,04,11,20,23.40
2009,07,04,11,21,23.50
2009,07,04,11,22,23.60
2009,07,04,11,23,23.70
2009,07,04,11,24,23.70
2009,07,04,11,25,23.70
2009,07,04,11,26,23.70
2009,07,04,11,27,23.60
2009,07,04,11,28,23.50
2009,07,04,11,29,23.30
2009,07,04,11,30,23.30
2009,07,04,11,31,23.20
2009,07,04,11,32,23.20
2009,07,04,11,33,23.10
2009,07,04,11,34,23.10
2009,07,04,11,35,23.10
2009,07,04,11,36,23.10
2009,07,04,11,37,22.90
2009,07,04,11,38,22.90
2009,07,04,11,39,22.70
2009,07,04,11,40,22.60
2009,07,04,11,41,22.50
2009,07,04,11,42,22.40
2009,07,04,11,43,22.30
2009,07,04,11,44,22.20
2009,07,04,11,45,22.10
2009,07,04,11,46,22.00
2009,07,04,11,47,22.00
2009,07,04,11,48,22.00
2009,07,04,11,49,22.00
2009,07,04,11,50,22.10
2009,07,04,11,51,22.10
2009,07,04,11,52,22.20
2009,07,04,11,53,22.20
2009,07,04,11,54,22.10
2009,07,04,11,55,22.10
2009,07,04,11,56,22.10
2009,07,04,11,57,22.10
2009,07,04,11,58,22.20
2009,07,04,11,59,22.20
2009,07,04,12,00,22.20
2009,07,04,12,01,22.20
2009,07,04,12,02,22.20
2009,07,04,12,03,22.30
2009,07,04,12,04,22.30
2009,07,04,12,05,22.30
2009,07,04,12,06,22.20
2009,07,04,12,07,22.20
2009,07,04,12,08,22.20
2009,07,04,12,09,22.20
2009,07,04,12,10,22.20
2009,07,04,12,11,22.20
2009,07,04,12,12,22.30
2009,07,04,12,13,22.30
2009,07,04,12,14,22.30
2009,07,04,12,15,22.40
2009,07,04,12,16,22.50
2009,07,04,12,17,22.50
2009,07,04,12,18,22.60
2009,07,04,12,19,22.70
2009,07,04,12,20,22.70
2009,07,04,12,21,22.80
2009,07,04,12,22,22.80
2009,07,04,12,23,22.90
2009,07,04,12,24,22.90
2009,07,04,12,25,23.00
2009,07,04,12,26,23.10
2009,07,04,12,27,23.20
2009,07,04,12,28,23.20
2009,07,04,12,29,23.20
2009,07,04,12,30,23.20
2009,07,04,12,31,23.20
2009,07,04,12,32,23.10
2009,07,04,12,33,23.20
2009,07,04,12,34,23.30
2009,07,04,12,35,23.30
2009,07,04,12,36,23.50
2009,07,04,12,37,23.60
2009,07,04,12,38,23.70
2009,07,04,12,39,23.70
2009,07,04,12,40,23.80
2009,07,04,12,41,23.90
2009,07,04,12,42,23.90
2009,07,04,12,43,23.90
2009,07,04,12,44,24.00
2009,07,04,12,45,24.10
2009,07,04,12,46,24.10
2009,07,04,12,47,24.00
2009,07,04,12,48,23.80
2009,07,04,12,49,23.70
2009,07,04,12,50,23.70
2009,07,04,12,51,23.60
2009,07,04,12,52,23.40
2009,07,04,12,53,23.40
2009,07,04,12,54,23.30
2009,07,04,12,55,23.30
2009,07,04,12,56,23.30
2009,07,04,12,57,23.30
2009,07,04,12,58,23.30
2009,07,04,12,59,23.30
2009,07,04,13,00,23.30
2009,07,04,13,01,23.30
2009,07,04,13,02,23.30
2009,07,04,13,03,23.40
2009,07,04,13,04,23.50
2009,07,04,13,05,23.60
2009,07,04,13,06,23.70
2009,07,04,13,07,23.80
2009,07,04,13,08,23.80
2009,07,04,13,09,23.70
2009,07,04,13,10,23.70
2009,07,04,13,11,23.70
2009,07,04,13,12,23.70
2009,07,04,13,13,23.80
2009,07,04,13,14,23.70
2009,07,04,13,15,23.70
2009,07,04,13,16,23.70
2009,07,04,13,17,23.70
2009,07,04,13,18,23.70
2009,07,04,13,19,23.70
2009,07,04,13,20,23.70
2009,07,04,13,21,23.70
2009,07,04,13,22,23.70
2009,07,04,13,23,23.70
2009,07,04,13,24,23.70
2009,07,04,13,25,23.70
2009,07,04,13,26,23.70
2009,07,04,13,27,23.60
2009,07,04,13,28,23.40
2009,07,04,13,29,23.30
2009,07,04,13,30,23.30
2009,07,04,13,31,23.30
2009,07,04,13,32,23.30
2009,07,04,13,33,23.30
2009,07,04,13,34,23.30
2009,07,04,13,35,23.30
2009,07,04,13,36,23.30
2009,07,04,13,37,23.30
2009,07,04,13,38,23.30
2009,07,04,13,39,23.30
2009,07,04,13,40,23.40
2009,07,04,13,41,23.50
2009,07,04,13,42,23.60
2009,07,04,13,43,23.60
2009,07,04,13,44,23.60
2009,07,04,13,45,23.70
2009,07,04,13,46,23.70
2009,07,04,13,47,23.70
2009,07,04,13,48,23.70
2009,07,04,13,49,23.70
2009,07,04,13,50,23.70
2009,07,04,13,51,23.70
2009,07,04,13,52,23.70
2009,07,04,13,53,23.70
2009,07,04,13,54,23.70
2009,07,04,13,55,23.80
2009,07,04,13,56,23.80
2009,07,04,13,57,24.00
2009,07,04,13,58,24.10
2009,07,04,13,59,24.40
2009,07,04,14,00,24.50
2009,07,04,14,01,24.50
2009,07,04,14,02,24.60
2009,07,04,14,03,24.50
2009,07,04,14,04,24.50
2009,07,04,14,05,24.60
2009,07,04,14,06,24.60
2009,07,04,14,07,24.60
2009,07,04,14,08,24.70
2009,07,04,14,09,24.60
2009,07,04,14,10,24.50
2009,07,04,14,11,24.50
2009,07,04,14,12,24.40
2009,07,04,14,13,24.30
2009,07,04,14,14,24.20
2009,07,04,14,15,24.20
2009,07,04,14,16,24.20
2009,07,04,14,17,24.30
2009,07,04,14,18,24.40
2009,07,04,14,19,24.40
2009,07,04,14,20,24.50
2009,07,04,14,21,24.50
2009,07,04,14,22,24.50
2009,07,04,14,23,24.40
2009,07,04,14,24,24.40
2009,07,04,14,25,24.50
2009,07,04,14,26,24.50
2009,07,04,14,27,24.50
2009,07,04,14,28,24.50
2009,07,04,14,29,24.40
2009,07,04,14,30,24.30
2009,07,04,14,31,24.30
2009,07,04,14,32,24.20
2009,07,04,14,33,24.30
2009,07,04,14,34,24.30
2009,07,04,14,35,24.30
2009,07,04,14,36,24.40
2009,07,04,14,37,24.40
2009,07,04,14,38,24.50
2009,07,04,14,39,24.60
2009,07,04,14,40,24.70
2009,07,04,14,41,24.80
2009,07,04,14,42,24.90
2009,07,04,14,43,25.00
2009,07,04,14,44,25.10
2009,07,04,14,45,25.20
2009,07,04,14,46,25.30
2009,07,04,14,47,25.40
2009,07,04,14,48,25.50
2009,07,04,14,49,25.50
2009,07,04,14,50,25.50
2009,07,04,14,51,25.40
2009,07,04,14,52,25.40
2009,07,04,14,53,25.30
2009,07,04,14,54,25.20
2009,07,04,14,55,25.10
2009,07,04,14,56,25.20
2009,07,04,14,57,25.20
2009,07,04,14,58,25.30
2009,07,04,14,59,25.30
2009,07,04,15,00,25.30
2009,07,04,15,01,25.20
2009,07,04,15,02,25.20
2009,07,04,15,03,25.20
2009,07,04,15,04,25.10
2009,07,04,15,05,25.20
2009,07,04,15,06,25.20
2009,07,04,15,07,25.20
2009,07,04,15,08,25.10
2009,07,04,15,09,25.00
2009,07,04,15,10,25.10
2009,07,04,15,11,25.10
2009,07,04,15,12,25.30
2009,07,04,15,13,25.40
2009,07,04,15,14,25.40
2009,07,04,15,15,25.50
2009,07,04,15,16,25.60
2009,07,04,15,17,25.70
2009,07,04,15,18,25.80
2009,07,04,15,19,25.80
2009,07,04,15,20,25.80
2009,07,04,15,21,25.80
2009,07,04,15,22,25.80
2009,07,04,15,23,25.70
2009,07,04,15,24,25.60
2009,07,04,15,25,25.60
2009,07,04,15,26,25.60
2009,07,04,15,27,25.60
2009,07,04,15,28,25.70
2009,07,04,15,29,25.70
2009,07,04,15,30,25.80
2009,07,04,15,31,25.80
2009,07,04,15,32,25.80
2009,07,04,15,33,25.80
2009,07,04,15,34,25.80
2009,07,04,15,35,25.80
2009,07,04,15,36,25.80
2009,07,04,15,37,25.80
2009,07,04,15,38,25.80
2009,07,04,15,39,25.80
2009,07,04,15,40,25.80
2009,07,04,15,41,25.80
2009,07,04,15,42,25.80
2009,07,04,15,43,25.80
2009,07,04,15,44,25.80
2009,07,04,15,45,25.90
2009,07,04,15,46,26.00
2009,07,04,15,47,26.10
2009,07,04,15,48,26.20
2009,07,04,15,49,26.30
2009,07,04,15,50,26.40
2009,07,04,15,51,26.50
2009,07,04,15,52,26.60
2009,07,04,15,53,26.60
2009,07,04,15,54,26.70
2009,07,04,15,55,26.70
2009,07,04,15,56,26.80
2009,07,04,15,57,26.80
2009,07,04,15,58,26.80
2009,07,04,15,59,26.80
2009,07,04,16,00,26.80
2009,07,04,16,01,26.80
2009,07,04,16,02,26.80
2009,07,04,16,03,26.60
2009,07,04,16,04,26.60
2009,07,04,16,05,26.60
2009,07,04,16,06,26.60
2009,07,04,16,07,26.70
2009,07,04,16,08,26.70
2009,07,04,16,09,26.80
2009,07,04,16,10,26.90
2009,07,04,16,11,27.00
2009,07,04,16,12,27.10
2009,07,04,16,13,27.10
2009,07,04,16,14,27.10
2009,07,04,16,15,27.20
2009,07,04,16,16,27.20
2009,07,04,16,17,27.10
2009,07,04,16,18,27.00
2009,07,04,16,19,26.80
2009,07,04,16,20,26.70
2009,07,04,16,21,26.60
2009,07,04,16,22,26.60
2009,07,04,16,23,26.60
2009,07,04,16,24,26.60
2009,07,04,16,25,26.60
2009,07,04,16,26,26.60
2009,07,04,16,27,26.50
2009,07,04,16,28,26.60
2009,07,04,16,29,26.60
2009,07,04,16,30,26.60
2009,07,04,16,31,26.60
2009,07,04,16,32,26.60
2009,07,04,16,33,26.60
2009,07,04,16,34,26.60
2009,07,04,16,35,26.60
2009,07,04,16,36,26.60
2009,07,04,16,37,26.60
2009,07,04,16,38,26.60
2009,07,04,16,39,26.50
2009,07,04,16,40,26.40
2009,07,04,16,41,26.30
2009,07,04,16,42,26.30
2009,07,04,16,43,26.20
2009,07,04,16,44,26.10
2009,07,04,16,45,26.00
2009,07,04,16,46,26.00
2009,07,04,16,47,26.00
2009,07,04,16,48,26.00
2009,07,04,16,49,26.00
2009,07,04,16,50,26.00
2009,07,04,16,51,26.00
2009,07,04,16,52,26.10
2009,07,04,16,53,26.10
2009,07,04,16,54,26.10
2009,07,04,16,55,26.00
2009,07,04,16,56,25.90
2009,07,04,16,57,25.90
2009,07,04,16,58,25.80
2009,07,04,16,59,25.60
2009,07,04,17,00,25.50
2009,07,04,17,01,25.40
2009,07,04,17,02,25.30
2009,07,04,17,03,25.30
2009,07,04,17,04,25.40
2009,07,04,17,05,25.30
2009,07,04,17,06,25.40
2009,07,04,17,07,25.40
2009,07,04,17,08,25.40
2009,07,04,17,09,25.50
2009,07,04,17,10,25.50
2009,07,04,17,11,25.50
2009,07,04,17,12,25.50
2009,07,04,17,13,25.60
2009,07,04,17,14,25.60
2009,07,04,17,15,25.60
2009,07,04,17,16,25.60
2009,07,04,17,17,25.60
2009,07,04,17,18,25.60
2009,07,04,17,19,25.60